Weather in Mnichovo Hradiste

Czech Republic     50°31′17″N   14°58′24″E
temp.,
°C
wind,
m/s
gust,
m/s
humid.,
%
clouds,
%
prec.,
mm/h
press.,
hPa
HPBL,
m
28 september, tue
tue2823:00+16nne0187100 0.7 101911
02:00+16nnw118799 0.9 102011
05:00+14nw249195 0.1 102180
08:00+15nw24885 0.1 1021115
11:00+19nw3469100 0.0 1022635
14:00+22nw335618 0.0 10211267
17:00+19nnw5569100 0.0 1021547
20:00+14n2393100 0.1 102272
29 september, wed
wed2923:00+14nne1190100 0.0 102217
02:00+14ne1190100 0.0 102116
05:00+13ene1292100 0.0 101926
08:00+14e1389100 0.0 1019104
11:00+17se5766100 0.0 1018730
14:00+19s4552100 0.0 10171232
17:00+15wsw4982100 0.6 1019546
20:00+13w1183100 0.7 102118
30 september, thu
thu3023:00+11wsw2282100 0.0 102223
02:00+12w2380100 0.0 102499
05:00+11nw238358 0.1 1025159
08:00+9w25863 0.2 1027154
11:00+12wsw56494 0.0 10281223
14:00+14w45363 0.0 10271765
17:00+14wsw34345 0.0 10271997
20:00+9w22485 0.0 102820
1 october, fri
fri123:00+7ene115796 0.0 102910
02:00+7ese1158100 0.0 102810
05:00+5ese226381 0.0 102812
08:00+6ese2465100 0.0 1027113
11:00+13sse464372 0.0 1026621
14:00+17sse463466 0.0 10221168
17:00+17sse3641100 0.0 1020270
20:00+11se335899 0.0 102031
2 october, sat
sat223:00+10ese387075 0.0 1020132
02:00+8ese338077 0.0 101959
05:00+8ese2286100 0.0 101842
08:00+9ese2587100 0.0 1018130
11:00+14sse3463100 0.0 1018490
14:00+17s3547100 0.0 1016948
17:00+18s2448100 0.0 1015275
20:00+14se2258100 0.0 101512